Location: Bühlhof
(48.7849°N, 8.6361°E)
Time: 20:48:51
(UTC+00:00)

Cosmos 1452 Rocket - Pass Details

Date: 19 January 2026
Orbit: 762 x 771 km, 74.1° (Epoch: 16 February)

Event Time Altitude Azimuth Distance (km) Brightness Sun altitude
Rises 16:30:42 0° 183° (S) 3,221 7.2 -4.9°
Reaches altitude 10° 16:33:07 10° 178° (S) 2,301 6.3 -5.3°
Maximum altitude 16:38:07 48° 105° (ESE) 1,005 3.8 -6.0°
Drops below altitude 10° 16:43:09 10° 33° (NNE) 2,322 5.5 -6.8°
Enters shadow 16:45:20 - 28° (NNE) 3,150 6.2 -7.1°
